Starlink 3344

operational
NORAD ID: 51110 Int'l Des: 2022-005 Owner: SPXS Country: US Constellation: starlink
LEOCIRCULAR

关于 Starlink 3344

正在加载描述...

实时位置

正在加载3D地球...

即将过境

高度历史

Altitude vs Time

uPlot chart will show altitude changes over time

两行轨道根数

1 51110U 22005G 25257.56669570 -.00000727 00000-0 -27571-4 0 9996
2 51110 53.2198 359.7500 0001296 71.9827 288.1307 15.08837082202295
Epoch: Sep 14, 2025 • Age: 21 hours

当前状态

高度 543.8 km
速度 7.60 km/s
星下点 46.04°N, 106.6°W
发射日期 Jan 19, 2022
运行时间 3.6 years
类型 internet

技术详情

分类 Payload
质量 297.00 kg
干质量 275.00 kg
总质量 297.00 kg
长度 0.20 m
直径 2.80 m
跨度 9.00 m
形状 Box + pan
制造商 SPXS
平台类型 Starlink
阶段状态 In Orbit
所有者/国家 SPXS/US

大型星座

Loading constellations...